WMT2U LATI-LMML

Flight info

Callsign WMT2U
Flight time 1h 15m
Altitude 35000
Route DIRES DCT PAPIZ DCT ABAKO DCT ERNAM DCT LORED P624 GZO
Aircraft A321/M-SDE1E2E3FGIJ1J4RWXY/LB1

Departure

Time 2026-05-01 10:08
Airport Tirana International Airport Mother Teresa (LATI)

Arrival

Time 2026-05-01 11:23
Airport Malta International Airport (LMML)
Time Latitude Longitude Altitude Speed Heading
2026-05-01 09:53 41.42027 19.71504 122 ft 0 kts 264°
2026-05-01 09:55 41.42028 19.71516 118 ft 4 kts 260°
2026-05-01 09:55 41.42036 19.71548 118 ft 4 kts 230°
2026-05-01 09:56 41.42056 19.71565 119 ft 4 kts 180°
2026-05-01 09:56 41.42062 19.71565 119 ft 0 kts 174°
2026-05-01 09:58 41.42060 19.71565 119 ft 1 kts 174°
2026-05-01 09:59 41.42054 19.71566 118 ft 1 kts 174°
2026-05-01 09:59 41.42042 19.71568 118 ft 2 kts 174°
2026-05-01 09:59 41.42021 19.71571 121 ft 3 kts 174°
2026-05-01 09:59 41.41994 19.71574 123 ft 4 kts 174°
2026-05-01 10:00 41.41960 19.71579 122 ft 5 kts 174°
2026-05-01 10:00 41.41920 19.71585 122 ft 6 kts 174°
2026-05-01 10:00 41.41874 19.71591 122 ft 7 kts 174°
2026-05-01 10:00 41.41823 19.71598 122 ft 8 kts 174°
2026-05-01 10:01 41.41767 19.71605 122 ft 8 kts 174°
2026-05-01 10:01 41.41707 19.71613 123 ft 9 kts 174°
2026-05-01 10:01 41.41642 19.71622 126 ft 10 kts 174°
2026-05-01 10:01 41.41572 19.71631 125 ft 10 kts 174°
2026-05-01 10:02 41.41499 19.71642 122 ft 11 kts 174°
2026-05-01 10:02 41.41420 19.71653 123 ft 12 kts 174°
2026-05-01 10:02 41.41338 19.71664 128 ft 12 kts 174°
2026-05-01 10:02 41.41253 19.71675 129 ft 13 kts 174°
2026-05-01 10:03 41.41159 19.71687 127 ft 14 kts 174°
2026-05-01 10:03 41.41060 19.71700 126 ft 15 kts 174°
2026-05-01 10:03 41.40956 19.71715 129 ft 15 kts 172°
2026-05-01 10:03 41.40849 19.71739 131 ft 16 kts 169°
2026-05-01 10:04 41.40734 19.71763 132 ft 17 kts 174°
2026-05-01 10:04 41.40612 19.71778 132 ft 18 kts 174°
2026-05-01 10:04 41.40505 19.71792 132 ft 13 kts 174°
2026-05-01 10:04 41.40411 19.71815 132 ft 14 kts 161°
2026-05-01 10:05 41.40325 19.71887 133 ft 15 kts 144°
2026-05-01 10:05 41.40258 19.71955 133 ft 10 kts 134°
2026-05-01 10:05 41.40240 19.72042 133 ft 11 kts 85°
2026-05-01 10:05 41.40246 19.72149 133 ft 12 kts 85°
2026-05-01 10:06 41.40254 19.72211 132 ft 2 kts 62°
2026-05-01 10:06 41.40271 19.72221 132 ft 3 kts
2026-05-01 10:06 41.40279 19.72219 132 ft 0 kts 352°
2026-05-01 10:07 41.40285 19.72218 132 ft 4 kts 352°
2026-05-01 10:07 41.40497 19.72188 132 ft 68 kts 354°
2026-05-01 10:07 41.41209 19.72093 128 ft 135 kts 354°
2026-05-01 10:08 41.43321 19.71787 1248 ft 159 kts 355°
2026-05-01 10:08 41.44468 19.71600 1708 ft 177 kts 356°
2026-05-01 10:08 41.45767 19.71417 2019 ft 199 kts 356°
2026-05-01 10:09 41.47230 19.71240 2277 ft 223 kts 356°
2026-05-01 10:09 41.48819 19.70858 2659 ft 248 kts 339°
2026-05-01 10:09 41.50218 19.69437 3380 ft 262 kts 307°
2026-05-01 10:09 41.50834 19.67126 4197 ft 272 kts 272°
2026-05-01 10:10 41.50387 19.64704 4965 ft 276 kts 237°
2026-05-01 10:10 41.49094 19.62891 5776 ft 277 kts 217°
2026-05-01 10:10 41.45986 19.59754 7505 ft 283 kts 214°
2026-05-01 10:11 41.44401 19.58218 8318 ft 287 kts 215°
2026-05-01 10:11 41.42762 19.56612 9152 ft 291 kts 216°
2026-05-01 10:11 41.41128 19.54988 10000 ft 294 kts 217°
2026-05-01 10:11 41.39452 19.53304 10438 ft 312 kts 217°
2026-05-01 10:12 41.37654 19.51483 10689 ft 335 kts 217°
2026-05-01 10:12 41.36402 19.50214 10962 ft 344 kts 218°
2026-05-01 10:12 41.31944 19.45687 12810 ft 348 kts 218°
2026-05-01 10:13 41.30010 19.43722 13550 ft 352 kts 218°
2026-05-01 10:13 41.28047 19.41726 14221 ft 356 kts 219°
2026-05-01 10:13 41.26064 19.39715 14883 ft 359 kts 218°
2026-05-01 10:14 41.22052 19.35656 16306 ft 363 kts 220°
2026-05-01 10:14 41.20029 19.33612 16989 ft 366 kts 218°
2026-05-01 10:14 41.18012 19.31574 17670 ft 369 kts 220°
2026-05-01 10:14 41.15953 19.29496 18358 ft 372 kts 220°
2026-05-01 10:15 41.13875 19.27404 18957 ft 375 kts 219°
2026-05-01 10:15 41.11788 19.25307 19560 ft 378 kts 219°
2026-05-01 10:15 41.09680 19.23187 20163 ft 380 kts 220°
2026-05-01 10:15 41.07560 19.21051 20774 ft 383 kts 220°
2026-05-01 10:16 41.05526 19.18839 21356 ft 384 kts 226°
2026-05-01 10:16 41.03699 19.16246 21961 ft 385 kts 231°
2026-05-01 10:16 41.00062 19.10937 23186 ft 390 kts 231°
2026-05-01 10:17 40.98227 19.08266 23769 ft 392 kts 231°
2026-05-01 10:17 40.94524 19.02899 24739 ft 396 kts 231°
2026-05-01 10:17 40.92676 19.00230 25191 ft 399 kts 231°
2026-05-01 10:18 40.88620 18.95094 26115 ft 409 kts 219°
2026-05-01 10:18 40.86142 18.93179 26545 ft 416 kts 210°
2026-05-01 10:18 40.83555 18.91504 26973 ft 419 kts 211°
2026-05-01 10:19 40.80934 18.89798 27403 ft 420 kts 211°
2026-05-01 10:19 40.78294 18.88078 27856 ft 422 kts 211°
2026-05-01 10:19 40.75648 18.86349 28273 ft 425 kts 212°
2026-05-01 10:20 40.70307 18.82866 29083 ft 430 kts 212°
2026-05-01 10:20 40.67649 18.81134 29468 ft 432 kts 212°
2026-05-01 10:20 40.64937 18.79371 29850 ft 435 kts 212°
2026-05-01 10:20 40.62211 18.77605 30212 ft 436 kts 212°
2026-05-01 10:21 40.59496 18.75852 30536 ft 438 kts 212°
2026-05-01 10:21 40.54944 18.72910 31029 ft 441 kts 212°
2026-05-01 10:21 40.52183 18.71118 31324 ft 444 kts 212°
2026-05-01 10:22 40.46634 18.67530 31994 ft 446 kts 212°
2026-05-01 10:22 40.41072 18.63959 32858 ft 443 kts 213°
2026-05-01 10:23 40.38293 18.62180 33278 ft 442 kts 213°
2026-05-01 10:23 40.32764 18.58636 34072 ft 441 kts 213°
2026-05-01 10:23 40.30011 18.56865 34397 ft 441 kts 213°
2026-05-01 10:24 40.24491 18.53316 34889 ft 440 kts 213°
2026-05-01 10:24 40.19034 18.49830 35139 ft 436 kts 213°
2026-05-01 10:25 40.08153 18.42896 35153 ft 433 kts 213°
2026-05-01 10:26 40.02771 18.39460 35145 ft 432 kts 213°
2026-05-01 10:27 39.91948 18.32600 35146 ft 432 kts 213°
2026-05-01 10:28 39.83924 18.27522 35143 ft 431 kts 214°
2026-05-01 10:28 39.75820 18.22420 35157 ft 430 kts 214°
2026-05-01 10:29 39.67764 18.17351 35112 ft 429 kts 214°
2026-05-01 10:30 39.57059 18.10637 35165 ft 426 kts 214°
2026-05-01 10:31 39.46354 18.03943 35130 ft 425 kts 215°
2026-05-01 10:32 39.38391 17.98975 35153 ft 424 kts 215°
2026-05-01 10:33 39.27757 17.92372 35161 ft 424 kts 215°
2026-05-01 10:34 39.19761 17.87408 35167 ft 424 kts 215°
2026-05-01 10:34 39.14468 17.84131 35165 ft 424 kts 215°
2026-05-01 10:35 39.06468 17.79201 35126 ft 423 kts 216°
2026-05-01 10:35 39.01178 17.75954 35150 ft 423 kts 216°
2026-05-01 10:36 38.93218 17.71058 35154 ft 422 kts 216°
2026-05-01 10:37 38.87895 17.67793 35106 ft 423 kts 216°
2026-05-01 10:37 38.79952 17.62940 35140 ft 422 kts 216°
2026-05-01 10:38 38.74624 17.59686 35153 ft 422 kts 216°
2026-05-01 10:38 38.69346 17.56462 35160 ft 422 kts 216°
2026-05-01 10:39 38.64036 17.53233 35138 ft 422 kts 216°
2026-05-01 10:39 38.58722 17.50005 35151 ft 422 kts 216°
2026-05-01 10:40 38.53402 17.46781 35158 ft 422 kts 216°
2026-05-01 10:40 38.48118 17.43585 35119 ft 422 kts 215°
2026-05-01 10:41 38.42796 17.40368 35132 ft 422 kts 215°
2026-05-01 10:42 38.34851 17.35565 35151 ft 423 kts 215°
2026-05-01 10:42 38.29509 17.32350 35153 ft 423 kts 215°
2026-05-01 10:43 38.24170 17.29149 35126 ft 423 kts 215°
2026-05-01 10:43 38.18856 17.25956 35138 ft 423 kts 215°
2026-05-01 10:44 38.13543 17.22767 35150 ft 424 kts 215°
2026-05-01 10:44 38.08201 17.19572 35157 ft 424 kts 215°
2026-05-01 10:45 38.02839 17.16377 35141 ft 424 kts 215°
2026-05-01 10:45 37.97531 17.13214 35154 ft 423 kts 215°
2026-05-01 10:46 37.92197 17.10041 35174 ft 423 kts 215°
2026-05-01 10:46 37.86859 17.06865 35159 ft 423 kts 215°
2026-05-01 10:47 37.81533 17.03707 35156 ft 421 kts 215°
2026-05-01 10:47 37.76245 17.00575 35170 ft 421 kts 215°
2026-05-01 10:48 37.70933 16.97426 35174 ft 420 kts 215°
2026-05-01 10:48 37.65630 16.94289 35171 ft 420 kts 215°
2026-05-01 10:49 37.60321 16.91162 35145 ft 420 kts 215°
2026-05-01 10:49 37.55055 16.88069 35157 ft 419 kts 215°
2026-05-01 10:50 37.49755 16.84956 35162 ft 419 kts 215°
2026-05-01 10:50 37.44458 16.81848 35164 ft 419 kts 215°
2026-05-01 10:51 37.39171 16.78741 35158 ft 419 kts 215°
2026-05-01 10:51 37.33907 16.75663 35163 ft 419 kts 214°
2026-05-01 10:52 37.28607 16.72573 35170 ft 418 kts 214°
2026-05-01 10:52 37.23349 16.69508 35162 ft 418 kts 214°
2026-05-01 10:53 37.18375 16.65924 35155 ft 401 kts 229°
2026-05-01 10:53 37.14676 16.60871 35164 ft 389 kts 239°
2026-05-01 10:54 37.11307 16.55597 35165 ft 390 kts 239°
2026-05-01 10:54 37.07887 16.50288 35167 ft 391 kts 238°
2026-05-01 10:55 37.05044 16.45888 35171 ft 391 kts 238°
2026-05-01 10:55 37.01625 16.40595 35150 ft 390 kts 238°
2026-05-01 10:56 36.98207 16.35314 35162 ft 390 kts 238°
2026-05-01 10:56 36.94786 16.30030 35172 ft 390 kts 238°
2026-05-01 10:57 36.91360 16.24755 35170 ft 391 kts 238°
2026-05-01 10:57 36.87921 16.19478 35173 ft 391 kts 238°
2026-05-01 10:58 36.84489 16.14194 35170 ft 391 kts 238°
2026-05-01 10:58 36.81079 16.08950 35152 ft 390 kts 237°
2026-05-01 10:59 36.77646 16.03690 35163 ft 390 kts 237°
2026-05-01 10:59 36.74203 15.98437 35090 ft 391 kts 237°
2026-05-01 10:59 36.72480 15.95810 34825 ft 391 kts 237°
2026-05-01 11:00 36.70777 15.93214 34389 ft 388 kts 237°
2026-05-01 11:00 36.69071 15.90614 33926 ft 385 kts 238°
2026-05-01 11:00 36.67382 15.88045 33499 ft 380 kts 238°
2026-05-01 11:00 36.65714 15.85509 33069 ft 375 kts 238°
2026-05-01 11:01 36.64065 15.83006 32630 ft 370 kts 237°
2026-05-01 11:01 36.62434 15.80532 32231 ft 366 kts 237°
2026-05-01 11:01 36.60848 15.78123 31830 ft 362 kts 238°
2026-05-01 11:01 36.59258 15.75707 31423 ft 358 kts 238°
2026-05-01 11:02 36.57683 15.73315 31017 ft 355 kts 238°
2026-05-01 11:02 36.56115 15.70932 30610 ft 353 kts 238°
2026-05-01 11:02 36.54558 15.68576 30207 ft 351 kts 238°
2026-05-01 11:02 36.53033 15.66273 29778 ft 348 kts 238°
2026-05-01 11:03 36.51503 15.63946 29395 ft 343 kts 241°
2026-05-01 11:03 36.50239 15.61476 28996 ft 333 kts 249°
2026-05-01 11:03 36.49353 15.58862 28598 ft 324 kts 257°
2026-05-01 11:03 36.48734 15.56178 28212 ft 320 kts 259°
2026-05-01 11:04 36.48133 15.53560 27857 ft 317 kts 259°
2026-05-01 11:04 36.47520 15.50922 27478 ft 315 kts 259°
2026-05-01 11:04 36.46910 15.48308 27112 ft 314 kts 259°
2026-05-01 11:04 36.46304 15.45706 26770 ft 312 kts 259°
2026-05-01 11:05 36.45700 15.43118 26419 ft 312 kts 258°
2026-05-01 11:05 36.45092 15.40517 26076 ft 312 kts 258°
2026-05-01 11:05 36.44493 15.37961 25735 ft 310 kts 258°
2026-05-01 11:05 36.43892 15.35393 25392 ft 309 kts 258°
2026-05-01 11:06 36.43291 15.32834 25050 ft 307 kts 258°
2026-05-01 11:06 36.42695 15.30289 24709 ft 305 kts 258°
2026-05-01 11:06 36.42099 15.27753 24360 ft 304 kts 259°
2026-05-01 11:07 36.40917 15.22724 23661 ft 302 kts 259°
2026-05-01 11:07 36.40338 15.20253 23281 ft 301 kts 259°
2026-05-01 11:07 36.39752 15.17753 22923 ft 300 kts 259°
2026-05-01 11:07 36.39167 15.15264 22582 ft 298 kts 258°
2026-05-01 11:08 36.38583 15.12790 22222 ft 297 kts 258°
2026-05-01 11:08 36.38079 15.10666 21914 ft 296 kts 258°
2026-05-01 11:08 36.36921 15.05786 21219 ft 293 kts 258°
2026-05-01 11:09 36.36348 15.03363 20879 ft 292 kts 258°
2026-05-01 11:09 36.35767 15.00908 20530 ft 291 kts 258°
2026-05-01 11:09 36.35206 14.98543 20179 ft 290 kts 258°
2026-05-01 11:10 36.34063 14.93744 19493 ft 288 kts 258°
2026-05-01 11:10 36.33497 14.91361 19139 ft 288 kts 258°
2026-05-01 11:10 36.32930 14.88980 18810 ft 288 kts 258°
2026-05-01 11:10 36.32363 14.86605 18471 ft 287 kts 258°
2026-05-01 11:11 36.31797 14.84234 18094 ft 286 kts 258°
2026-05-01 11:11 36.31234 14.81876 17751 ft 285 kts 258°
2026-05-01 11:11 36.30673 14.79523 17408 ft 284 kts 257°
2026-05-01 11:11 36.30113 14.77172 17082 ft 284 kts 257°
2026-05-01 11:12 36.29552 14.74824 16749 ft 284 kts 257°
2026-05-01 11:12 36.28991 14.72478 16412 ft 283 kts 257°
2026-05-01 11:12 36.28429 14.70139 16087 ft 282 kts 257°
2026-05-01 11:12 36.27868 14.67810 15752 ft 281 kts 257°
2026-05-01 11:13 36.27310 14.65488 15423 ft 280 kts 257°
2026-05-01 11:13 36.26756 14.63180 15094 ft 279 kts 257°
2026-05-01 11:13 36.26201 14.60874 14771 ft 279 kts 257°
2026-05-01 11:13 36.25652 14.58604 14451 ft 278 kts 256°
2026-05-01 11:14 36.25094 14.56308 14125 ft 277 kts 256°
2026-05-01 11:14 36.24537 14.54013 13792 ft 276 kts 257°
2026-05-01 11:14 36.23988 14.51737 13447 ft 275 kts 257°
2026-05-01 11:14 36.23440 14.49461 13128 ft 275 kts 257°
2026-05-01 11:15 36.22895 14.47203 12810 ft 274 kts 257°
2026-05-01 11:15 36.22347 14.44945 12491 ft 272 kts 257°
2026-05-01 11:15 36.21779 14.42713 12073 ft 275 kts 252°
2026-05-01 11:15 36.20678 14.40708 11503 ft 291 kts 227°
2026-05-01 11:16 36.18941 14.39340 11065 ft 300 kts 213°
2026-05-01 11:16 36.17093 14.38156 10655 ft 297 kts 212°
2026-05-01 11:16 36.15263 14.37000 10155 ft 293 kts 212°
2026-05-01 11:16 36.13450 14.35856 9523 ft 292 kts 212°
2026-05-01 11:17 36.11657 14.34724 8799 ft 288 kts 211°
2026-05-01 11:17 36.09880 14.33602 8125 ft 283 kts 211°
2026-05-01 11:17 36.08137 14.32500 7378 ft 281 kts 210°
2026-05-01 11:17 36.06396 14.31397 6639 ft 281 kts 210°
2026-05-01 11:18 36.04660 14.30294 5900 ft 280 kts 211°
2026-05-01 11:18 36.02869 14.29364 5221 ft 277 kts 189°
2026-05-01 11:18 36.01042 14.29506 5066 ft 251 kts 160°
2026-05-01 11:18 35.99612 14.30521 4764 ft 231 kts 133°
2026-05-01 11:19 35.98486 14.31894 4346 ft 226 kts 133°
2026-05-01 11:19 35.97389 14.33261 4062 ft 223 kts 131°
2026-05-01 11:19 35.96312 14.34610 3794 ft 219 kts 130°
2026-05-01 11:19 35.95248 14.35942 3410 ft 217 kts 129°
2026-05-01 11:20 35.94209 14.37235 3063 ft 209 kts 131°
2026-05-01 11:20 35.93195 14.38495 2578 ft 200 kts 129°
2026-05-01 11:20 35.92256 14.39662 2158 ft 183 kts 131°
2026-05-01 11:20 35.91407 14.40715 1898 ft 164 kts 130°
2026-05-01 11:21 35.90644 14.41664 1673 ft 150 kts 130°
2026-05-01 11:21 35.89934 14.42547 1469 ft 144 kts 128°
2026-05-01 11:21 35.89229 14.43425 1281 ft 145 kts 129°
2026-05-01 11:21 35.88525 14.44300 1126 ft 142 kts 127°
2026-05-01 11:22 35.87837 14.45154 945 ft 139 kts 126°
2026-05-01 11:22 35.87161 14.46000 742 ft 139 kts 126°
2026-05-01 11:22 35.86473 14.46848 570 ft 139 kts 133°
2026-05-01 11:22 35.85807 14.47672 355 ft 141 kts 127°
2026-05-01 11:23 35.85146 14.48498 272 ft 122 kts 135°
2026-05-01 11:23 35.84665 14.49091 259 ft 72 kts 134°
2026-05-01 11:23 35.84457 14.49364 259 ft 7 kts 110°
2026-05-01 11:23 35.84452 14.49405 259 ft 4 kts 90°
2026-05-01 11:24 35.84453 14.49449 259 ft 6 kts 96°
2026-05-01 11:24 35.84443 14.49508 259 ft 8 kts 93°
2026-05-01 11:24 35.84529 14.49555 259 ft 7 kts 325°
2026-05-01 11:25 35.84577 14.49533 259 ft 8 kts
2026-05-01 11:25 35.84687 14.49562 259 ft 9 kts 336°
2026-05-01 11:25 35.84737 14.49512 259 ft 7 kts 315°
2026-05-01 11:26 35.84743 14.49495 259 ft 2 kts 280°
2026-05-01 11:26 35.84715 14.49455 259 ft 2 kts 225°
2026-05-01 11:26 35.84704 14.49441 259 ft 2 kts 225°
2026-05-01 11:27 35.84701 14.49438 259 ft 0 kts 225°